| time (UTC) | temp F | wind direction | speed knots | gust knots | rain 1hr in | rain 24hr in | rain mn in | humidity % | barometer mb |
| 20260904094003 | 69 | 173 | 0.0 | 0.9 | 0.00 | 0.00 | 0.00 | 96 | 1016.4 |
| 20260904093503 | 68 | 173 | 0.0 | 0.0 | 0.00 | 0.00 | 0.00 | 96 | 1016.5 |
| 20260904093001 | 69 | 173 | 0.0 | 0.0 | 0.00 | 0.00 | 0.00 | 96 | 1016.6 |
| 20260904092559 | 69 | 173 | 0.0 | 0.0 | 0.00 | 0.00 | 0.00 | 95 | 1016.5 |
| 20260904092058 | 69 | 173 | 0.0 | 0.0 | 0.00 | 0.00 | 0.00 | 95 | 1016.3 |
| 20260904091557 | 69 | 173 | 0.0 | 0.0 | 0.00 | 0.00 | 0.00 | 95 | 1016.2 |
| 20260904091056 | 69 | 173 | 0.0 | 0.0 | 0.00 | 0.00 | 0.00 | 95 | 1016.3 |
| 20260904090657 | 69 | 173 | 0.0 | 0.0 | 0.00 | 0.00 | 0.00 | 95 | 1016.3 |
| 20260904090058 | 69 | 173 | 0.0 | 0.0 | 0.00 | 0.00 | 0.00 | 95 | 1016.2 |
| 20260904085557 | 69 | 173 | 0.0 | 0.0 | 0.00 | 0.00 | 0.00 | 95 | 1016.1 |
| 20260904085056 | 69 | 173 | 0.0 | 0.0 | 0.00 | 0.00 | 0.00 | 95 | 1016.1 |
| 20260904084555 | 69 | 173 | 0.0 | 0.0 | 0.00 | 0.00 | 0.00 | 95 | 1016.0 |
| 20260904084055 | 69 | 173 | 0.0 | 0.0 | 0.00 | 0.00 | 0.00 | 94 | 1016.0 |
| 20260904083558 | 70 | 173 | 0.0 | 0.0 | 0.00 | 0.00 | 0.00 | 95 | 1015.9 |
| 20260904083056 | 70 | 173 | 0.0 | 0.9 | 0.00 | 0.00 | 0.00 | 94 | 1015.8 |
| 20260904082553 | 70 | 173 | 0.0 | 0.9 | 0.00 | 0.00 | 0.00 | 94 | 1015.8 |
| 20260904082052 | 70 | 173 | 0.0 | 0.0 | 0.00 | 0.00 | 0.00 | 94 | 1015.8 |
| 20260904081622 | 70 | 173 | 0.0 | 0.0 | 0.00 | 0.00 | 0.00 | 94 | 1015.8 |
| 20260904081052 | 70 | 173 | 0.0 | 0.0 | 0.00 | 0.00 | 0.00 | 94 | 1015.7 |
| 20260904080654 | 70 | 173 | 0.0 | 0.0 | 0.00 | 0.00 | 0.00 | 94 | 1015.7 |
| 20260904080056 | 70 | 173 | 0.0 | 0.0 | 0.00 | 0.00 | 0.00 | 93 | 1015.6 |
| 20260904075553 | 70 | 173 | 0.0 | 0.0 | 0.00 | 0.00 | 0.00 | 93 | 1015.7 |
| 20260904075053 | 71 | 173 | 0.0 | 0.0 | 0.00 | 0.00 | 0.00 | 93 | 1015.8 |
| 20260904074607 | 71 | 173 | 0.0 | 0.0 | 0.00 | 0.00 | 0.00 | 93 | 1015.8 |
| 20260904074053 | 71 | 173 | 0.0 | 0.0 | 0.00 | 0.00 | 0.00 | 93 | 1015.6 |
| 20260904073553 | 71 | 173 | 0.0 | 0.0 | 0.00 | 0.00 | 0.00 | 93 | 1015.6 |
| 20260904073104 | 71 | 173 | 0.0 | 0.0 | 0.00 | 0.00 | 0.00 | 93 | 1015.7 |
| 20260904072552 | 71 | 173 | 0.0 | 0.0 | 0.00 | 0.00 | 0.00 | 92 | 1015.7 |
| 20260904072050 | 71 | 173 | 0.0 | 0.0 | 0.00 | 0.00 | 0.00 | 92 | 1015.7 |
| 20260904071550 | 71 | 173 | 0.0 | 0.0 | 0.00 | 0.00 | 0.00 | 92 | 1015.7 |
| 20260904071049 | 71 | 173 | 0.0 | 0.0 | 0.00 | 0.00 | 0.00 | 92 | 1015.8 |
| 20260904070649 | 72 | 173 | 0.0 | 0.0 | 0.00 | 0.00 | 0.00 | 92 | 1015.8 |
| 20260904070105 | 72 | 173 | 0.0 | 0.0 | 0.00 | 0.00 | 0.00 | 91 | 1015.9 |
| 20260904065549 | 72 | 173 | 0.0 | 0.0 | 0.00 | 0.00 | 0.00 | 91 | 1016.0 |
| 20260904065047 | 72 | 173 | 0.0 | 0.0 | 0.00 | 0.00 | 0.00 | 91 | 1016.0 |
| 20260904064547 | 72 | 173 | 0.0 | 0.0 | 0.00 | 0.00 | 0.00 | 91 | 1016.0 |
| 20260904064047 | 72 | 173 | 0.0 | 0.0 | 0.00 | 0.00 | 0.00 | 91 | 1015.9 |
| 20260904063547 | 72 | 173 | 0.0 | 0.0 | 0.00 | 0.00 | 0.00 | 90 | 1015.8 |
| 20260904063053 | 73 | 173 | 0.0 | 0.0 | 0.00 | 0.00 | 0.00 | 90 | 1015.9 |
| 20260904062545 | 73 | 173 | 0.0 | 0.0 | 0.00 | 0.00 | 0.00 | 90 | 1016.0 |
| 20260904062045 | 73 | 173 | 0.0 | 0.0 | 0.00 | 0.00 | 0.00 | 90 | 1015.8 |
| 20260904061545 | 73 | 173 | 0.0 | 0.0 | 0.00 | 0.00 | 0.00 | 89 | 1015.9 |
| 20260904061045 | 73 | 173 | 0.0 | 0.0 | 0.00 | 0.00 | 0.00 | 90 | 1016.0 |
| 20260904060645 | 73 | 173 | 0.0 | 0.0 | 0.00 | 0.00 | 0.00 | 90 | 1016.0 |
| 20260904060048 | 73 | 173 | 0.0 | 0.0 | 0.00 | 0.00 | 0.00 | 90 | 1015.9 |
| 20260904055547 | 73 | 173 | 0.0 | 0.0 | 0.00 | 0.00 | 0.00 | 89 | 1015.9 |
| 20260904055050 | 73 | 173 | 0.0 | 0.0 | 0.00 | 0.00 | 0.00 | 89 | 1015.8 |
| 20260904054549 | 73 | 173 | 0.0 | 0.0 | 0.00 | 0.00 | 0.00 | 88 | 1015.9 |
| 20260904054046 | 74 | 173 | 0.0 | 0.0 | 0.00 | 0.00 | 0.00 | 88 | 1016.0 |
| 20260904053544 | 74 | 173 | 0.0 | 0.0 | 0.00 | 0.00 | 0.00 | 88 | 1016.0 |
| 20260904053144 | 74 | 173 | 0.0 | 0.9 | 0.00 | 0.00 | 0.00 | 87 | 1016.0 |
| 20260904052543 | 74 | 173 | 0.0 | 0.9 | 0.00 | 0.00 | 0.00 | 88 | 1016.0 |
| 20260904052044 | 74 | 169 | 0.0 | 0.0 | 0.00 | 0.00 | 0.00 | 88 | 1016.1 |
| 20260904051543 | 74 | 169 | 0.0 | 0.0 | 0.00 | 0.00 | 0.00 | 88 | 1016.0 |
| 20260904051042 | 74 | 169 | 0.0 | 0.0 | 0.00 | 0.00 | 0.00 | 88 | 1016.0 |
| 20260904050642 | 74 | 169 | 0.0 | 0.0 | 0.00 | 0.00 | 0.00 | 88 | 1016.1 |
| 20260904050059 | 74 | 169 | 0.0 | 0.0 | 0.00 | 0.00 | 0.00 | 88 | 1016.0 |
| 20260904045558 | 74 | 169 | 0.0 | 0.0 | 0.00 | 0.00 | 0.00 | 88 | 1015.9 |
| 20260904045058 | 75 | 169 | 0.0 | 1.7 | 0.00 | 0.00 | 0.00 | 87 | 1015.9 |
| 20260904044558 | 75 | 169 | 0.0 | 2.6 | 0.00 | 0.00 | 0.00 | 87 | 1015.9 |
| 20260904044100 | 75 | 182 | 0.0 | 2.6 | 0.00 | 0.00 | 0.00 | 87 | 1015.9 |
| 20260904043557 | 75 | 173 | 0.0 | 1.7 | 0.00 | 0.00 | 0.00 | 87 | 1015.8 |
| 20260904043115 | 75 | 148 | 0.0 | 4.3 | 0.00 | 0.00 | 0.00 | 87 | 1015.9 |
| 20260904042557 | 76 | 173 | 0.9 | 4.3 | 0.00 | 0.00 | 0.00 | 85 | 1015.9 |
| 20260904042100 | 76 | 160 | 0.0 | 1.7 | 0.00 | 0.00 | 0.00 | 84 | 1015.9 |
| 20260904041602 | 76 | 201 | 0.0 | 0.9 | 0.00 | 0.00 | 0.00 | 84 | 1015.8 |
| 20260904041056 | 76 | 201 | 0.0 | 0.9 | 0.00 | 0.00 | 0.00 | 83 | 1015.8 |
| 20260904040657 | 77 | 201 | 0.0 | 0.0 | 0.00 | 0.00 | 0.00 | 83 | 1015.8 |
| 20260904040054 | 77 | 201 | 0.0 | 0.0 | 0.00 | 0.00 | 0.00 | 81 | 1015.8 |
| 20260904035553 | 78 | 201 | 0.0 | 0.9 | 0.00 | 0.00 | 0.00 | 80 | 1015.8 |
| 20260904035052 | 78 | 201 | 0.0 | 1.7 | 0.00 | 0.00 | 0.00 | 79 | 1015.8 |
| 20260904034554 | 78 | 128 | 0.0 | 5.2 | 0.00 | 0.00 | 0.00 | 80 | 1015.8 |
| 20260904034053 | 78 | 177 | 0.9 | 5.2 | 0.00 | 0.00 | 0.00 | 80 | 1015.7 |
| 20260904033553 | 78 | 193 | 0.9 | 5.2 | 0.00 | 0.00 | 0.00 | 81 | 1015.7 |
| 20260904033052 | 78 | 186 | 0.9 | 2.6 | 0.00 | 0.00 | 0.00 | 82 | 1015.8 |
| 20260904032552 | 78 | 177 | 0.9 | 3.5 | 0.00 | 0.00 | 0.00 | 83 | 1015.8 |
| 20260904032052 | 78 | 198 | 0.9 | 4.3 | 0.00 | 0.00 | 0.00 | 83 | 1015.7 |
| 20260904031552 | 78 | 178 | 1.7 | 4.3 | 0.00 | 0.00 | 0.00 | 84 | 1015.7 |
| 20260904031052 | 77 | 196 | 0.9 | 3.5 | 0.00 | 0.00 | 0.00 | 86 | 1015.5 |
| 20260904030652 | 77 | 162 | 0.9 | 3.5 | 0.00 | 0.00 | 0.00 | 87 | 1015.6 |
| 20260904030045 | 76 | 162 | 0.9 | 4.3 | 0.00 | 0.00 | 0.00 | 88 | 1015.7 |
| 20260904025544 | 77 | 166 | 0.0 | 2.6 | 0.00 | 0.00 | 0.00 | 88 | 1015.6 |
| 20260904025044 | 77 | 157 | 0.0 | 1.7 | 0.00 | 0.00 | 0.00 | 88 | 1015.7 |
| 20260904024546 | 77 | 150 | 0.0 | 1.7 | 0.00 | 0.00 | 0.00 | 88 | 1015.6 |
| 20260904024043 | 77 | 153 | 0.0 | 0.0 | 0.00 | 0.00 | 0.00 | 87 | 1015.7 |
| 20260904023543 | 77 | 153 | 0.0 | 0.0 | 0.00 | 0.00 | 0.00 | 86 | 1015.7 |
| 20260904023047 | 78 | 154 | 0.0 | 0.0 | 0.00 | 0.00 | 0.00 | 86 | 1015.5 |
| 20260904022543 | 78 | 153 | 0.0 | 0.0 | 0.00 | 0.00 | 0.00 | 85 | 1015.5 |
| 20260904022044 | 78 | 153 | 0.0 | 0.0 | 0.00 | 0.00 | 0.00 | 85 | 1015.5 |
| 20260904021552 | 78 | 153 | 0.0 | 0.0 | 0.00 | 0.00 | 0.00 | 84 | 1015.5 |
| 20260904021044 | 79 | 153 | 0.0 | 0.0 | 0.00 | 0.00 | 0.00 | 83 | 1015.5 |
| 20260904020643 | 79 | 153 | 0.0 | 0.0 | 0.00 | 0.00 | 0.00 | 83 | 1015.4 |
| 20260904020043 | 79 | 153 | 0.0 | 0.0 | 0.00 | 0.00 | 0.00 | 82 | 1015.4 |
| 20260904015541 | 80 | 153 | 0.0 | 0.9 | 0.00 | 0.00 | 0.00 | 81 | 1015.2 |
| 20260904015041 | 80 | 153 | 0.0 | 0.0 | 0.00 | 0.00 | 0.00 | 80 | 1015.2 |
| 20260904014604 | 80 | 153 | 0.0 | 0.0 | 0.00 | 0.00 | 0.00 | 80 | 1015.1 |
| 20260904014042 | 81 | 154 | 0.0 | 0.9 | 0.00 | 0.00 | 0.00 | 80 | 1015.1 |
| 20260904013545 | 81 | 154 | 0.0 | 0.9 | 0.00 | 0.00 | 0.00 | 79 | 1015.1 |
| 20260904013043 | 81 | 162 | 0.0 | 0.9 | 0.00 | 0.00 | 0.00 | 78 | 1015.0 |
| 20260904012541 | 81 | 87 | 0.0 | 1.7 | 0.00 | 0.00 | 0.00 | 79 | 1015.0 |
| 20260904012040 | 82 | 59 | 0.0 | 1.7 | 0.00 | 0.00 | 0.00 | 77 | 1014.8 |
| 20260904011541 | 82 | 163 | 0.0 | 1.7 | 0.00 | 0.00 | 0.00 | 77 | 1014.9 |
| 20260904011042 | 82 | 152 | 0.0 | 1.7 | 0.00 | 0.00 | 0.00 | 75 | 1014.6 |
| 20260904010640 | 82 | 165 | 0.0 | 5.2 | 0.00 | 0.00 | 0.00 | 75 | 1014.6 |
| 20260904010057 | 81 | 149 | 0.9 | 5.2 | 0.00 | 0.00 | 0.00 | 76 | 1014.6 |
| 20260904005555 | 82 | 123 | 0.0 | 1.7 | 0.00 | 0.00 | 0.00 | 74 | 1014.5 |
| 20260904005056 | 83 | 134 | 0.0 | 3.5 | 0.00 | 0.00 | 0.00 | 72 | 1014.4 |
| 20260904004600 | 83 | 140 | 0.9 | 3.5 | 0.00 | 0.00 | 0.00 | 72 | 1014.4 |
| 20260904004056 | 83 | 119 | 0.9 | 2.6 | 0.00 | 0.00 | 0.00 | 72 | 1014.3 |
| 20260904003555 | 83 | 155 | 0.0 | 0.9 | 0.00 | 0.00 | 0.00 | 72 | 1014.3 |
| 20260904003100 | 84 | 155 | 0.0 | 1.7 | 0.00 | 0.00 | 0.00 | 71 | 1014.3 |
| 20260904002555 | 85 | 155 | 0.0 | 1.7 | 0.00 | 0.00 | 0.00 | 68 | 1014.2 |
| 20260904002058 | 86 | 157 | 0.0 | 1.7 | 0.00 | 0.00 | 0.00 | 66 | 1014.3 |
| 20260904001555 | 87 | 148 | 0.9 | 2.6 | 0.00 | 0.00 | 0.00 | 65 | 1014.2 |
| 20260904001055 | 87 | 157 | 0.9 | 2.6 | 0.00 | 0.00 | 0.00 | 63 | 1014.2 |
| 20260904000656 | 88 | 174 | 0.9 | 4.3 | 0.00 | 0.00 | 0.00 | 63 | 1014.2 |
| 20260904000137 | 89 | 162 | 0.0 | 4.3 | 0.00 | 0.00 | 0.00 | 60 | 1014.2 |
| 20260903235552 | 90 | 130 | 0.9 | 4.3 | 0.00 | 0.00 | 0.00 | 59 | 1014.1 |
| 20260903235052 | 90 | 161 | 1.7 | 4.3 | 0.00 | 0.00 | 0.00 | 57 | 1014.0 |
| 20260903234554 | 90 | 112 | 0.9 | 7.0 | 0.00 | 0.00 | 0.00 | 58 | 1014.1 |
| 20260903234054 | 91 | 98 | 1.7 | 7.0 | 0.00 | 0.00 | 0.00 | 57 | 1014.2 |
| 20260903233551 | 91 | 159 | 0.0 | 6.1 | 0.00 | 0.00 | 0.00 | 55 | 1014.0 |
| 20260903233054 | 92 | 157 | 2.6 | 9.6 | 0.00 | 0.00 | 0.00 | 55 | 1014.0 |
| 20260903232551 | 92 | 278 | 4.3 | 9.6 | 0.00 | 0.00 | 0.00 | 53 | 1014.0 |
| 20260903232055 | 92 | 117 | 1.7 | 6.1 | 0.00 | 0.00 | 0.00 | 54 | 1014.0 |
| 20260903231600 | 92 | 200 | 1.7 | 7.8 | 0.00 | 0.00 | 0.00 | 55 | 1014.0 |
| 20260903231052 | 93 | 180 | 2.6 | 9.6 | 0.00 | 0.00 | 0.00 | 53 | 1014.0 |
| 20260903230652 | 93 | 205 | 4.3 | 9.6 | 0.00 | 0.00 | 0.00 | 52 | 1014.0 |
| 20260903225551 | 93 | 157 | 2.6 | 7.8 | 0.00 | 0.00 | 0.00 | 52 | 1014.0 |
| 20260903225049 | 94 | 242 | 1.7 | 8.7 | 0.00 | 0.00 | 0.00 | 51 | 1014.0 |
| 20260903224554 | 95 | 156 | 3.5 | 8.7 | 0.00 | 0.00 | 0.00 | 49 | 1014.1 |
| 20260903224049 | 95 | 228 | 2.6 | 7.0 | 0.00 | 0.00 | 0.00 | 49 | 1014.1 |
| 20260903223549 | 95 | 239 | 1.7 | 7.8 | 0.00 | 0.00 | 0.00 | 48 | 1014.1 |
| 20260903223148 | 95 | 249 | 3.5 | 7.8 | 0.00 | 0.00 | 0.00 | 47 | 1014.1 |
| 20260903222553 | 94 | 161 | 1.7 | 7.8 | 0.00 | 0.00 | 0.00 | 50 | 1014.2 |
| 20260903222048 | 95 | 82 | 1.7 | 7.8 | 0.00 | 0.00 | 0.00 | 51 | 1014.0 |
| 20260903221551 | 95 | 79 | 1.7 | 7.8 | 0.00 | 0.00 | 0.00 | 48 | 1014.0 |
| 20260903221047 | 96 | 152 | 1.7 | 7.8 | 0.00 | 0.00 | 0.00 | 45 | 1014.0 |
| 20260903220646 | 96 | 182 | 3.5 | 7.8 | 0.00 | 0.00 | 0.00 | 46 | 1014.0 |
| 20260903220056 | 96 | 233 | 3.5 | 9.6 | 0.00 | 0.00 | 0.00 | 47 | 1014.0 |
| 20260903215545 | 95 | 95 | 2.6 | 9.6 | 0.00 | 0.00 | 0.00 | 47 | 1014.1 |
| 20260903215046 | 95 | 206 | 3.5 | 9.6 | 0.00 | 0.00 | 0.00 | 46 | 1014.0 |
| 20260903214551 | 96 | 156 | 3.5 | 9.6 | 0.00 | 0.00 | 0.00 | 46 | 1014.0 |
| 20260903214045 | 96 | 186 | 4.3 | 7.8 | 0.00 | 0.00 | 0.00 | 46 | 1014.1 |
| 20260903213544 | 97 | 157 | 3.5 | 7.8 | 0.00 | 0.00 | 0.00 | 45 | 1014.2 |
| 20260903213048 | 97 | 202 | 1.7 | 8.7 | 0.00 | 0.00 | 0.00 | 45 | 1014.3 |
| 20260903212542 | 96 | 151 | 3.5 | 8.7 | 0.00 | 0.00 | 0.00 | 45 | 1014.3 |
| 20260903212042 | 97 | 92 | 2.6 | 13.0 | 0.00 | 0.00 | 0.00 | 45 | 1014.3 |
| 20260903211544 | 96 | 69 | 3.5 | 13.0 | 0.00 | 0.00 | 0.00 | 46 | 1014.3 |
| 20260903211042 | 96 | 98 | 5.2 | 10.4 | 0.00 | 0.00 | 0.00 | 48 | 1014.3 |
| 20260903210642 | 96 | 159 | 4.3 | 9.6 | 0.00 | 0.00 | 0.00 | 45 | 1014.4 |
| 20260903210049 | 97 | 165 | 4.3 | 11.3 | 0.00 | 0.00 | 0.00 | 45 | 1014.6 |
| 20260903205543 | 97 | 187 | 5.2 | 11.3 | 0.00 | 0.00 | 0.00 | 44 | 1014.4 |
| 20260903205044 | 97 | 130 | 2.6 | 9.6 | 0.00 | 0.00 | 0.00 | 45 | 1014.3 |
| 20260903204545 | 97 | 174 | 3.5 | 9.6 | 0.00 | 0.00 | 0.00 | 45 | 1014.3 |
| 20260903204042 | 97 | 182 | 3.5 | 9.6 | 0.00 | 0.00 | 0.00 | 44 | 1014.4 |
| 20260903203545 | 98 | 152 | 2.6 | 9.6 | 0.00 | 0.00 | 0.00 | 45 | 1014.4 |
| 20260903203044 | 98 | 148 | 3.5 | 11.3 | 0.00 | 0.00 | 0.00 | 44 | 1014.6 |
| 20260903202541 | 98 | 146 | 1.7 | 10.4 | 0.00 | 0.00 | 0.00 | 45 | 1014.4 |
| 20260903202041 | 97 | 187 | 1.7 | 7.0 | 0.00 | 0.00 | 0.00 | 46 | 1014.5 |
| 20260903201540 | 98 | 206 | 2.6 | 7.8 | 0.00 | 0.00 | 0.00 | 45 | 1014.6 |
| 20260903201039 | 98 | 105 | 1.7 | 7.8 | 0.00 | 0.00 | 0.00 | 45 | 1014.7 |
| 20260903200504 | 98 | 207 | 2.6 | 8.7 | 0.00 | 0.00 | 0.00 | 46 | 1014.8 |
| 20260903200002 | 98 | 178 | 4.3 | 8.7 | 0.00 | 0.00 | 0.00 | 45 | 1014.9 |
| 20260903195559 | 99 | 184 | 3.5 | 7.8 | 0.00 | 0.00 | 0.00 | 43 | 1014.8 |
| 20260903195058 | 98 | 144 | 1.7 | 10.4 | 0.00 | 0.00 | 0.00 | 44 | 1014.9 |
| 20260903194558 | 98 | 206 | 4.3 | 10.4 | 0.00 | 0.00 | 0.00 | 46 | 1015.0 |
| 20260903194057 | 96 | 178 | 1.7 | 7.0 | 0.00 | 0.00 | 0.00 | 45 | 1015.1 |
| 20260903193557 | 98 | 174 | 2.6 | 7.0 | 0.00 | 0.00 | 0.00 | 44 | 1015.2 |
| 20260903193058 | 98 | 178 | 4.3 | 7.0 | 0.00 | 0.00 | 0.00 | 45 | 1015.3 |
| 20260903192557 | 98 | 158 | 3.5 | 10.4 | 0.00 | 0.00 | 0.00 | 43 | 1015.4 |
| 20260903192055 | 98 | 213 | 3.5 | 10.4 | 0.00 | 0.00 | 0.00 | 46 | 1015.3 |
| 20260903191557 | 98 | 162 | 3.5 | 13.0 | 0.00 | 0.00 | 0.00 | 46 | 1015.4 |
| 20260903191055 | 97 | 137 | 3.5 | 7.0 | 0.00 | 0.00 | 0.00 | 47 | 1015.3 |
| 20260903190655 | 96 | 23 | 0.9 | 7.0 | 0.00 | 0.00 | 0.00 | 49 | 1015.5 |
| 20260903185555 | 97 | 180 | 1.7 | 7.8 | 0.00 | 0.00 | 0.00 | 46 | 1015.8 |
| 20260903185054 | 98 | 244 | 2.6 | 10.4 | 0.00 | 0.00 | 0.00 | 44 | 1015.8 |
| 20260903184554 | 99 | 180 | 3.5 | 10.4 | 0.00 | 0.00 | 0.00 | 45 | 1015.7 |
| 20260903184053 | 99 | 192 | 3.5 | 9.6 | 0.00 | 0.00 | 0.00 | 45 | 1015.8 |
| 20260903183551 | 98 | 55 | 2.6 | 8.7 | 0.00 | 0.00 | 0.00 | 47 | 1015.8 |
| 20260903183054 | 97 | 179 | 3.5 | 9.6 | 0.00 | 0.00 | 0.00 | 46 | 1015.8 |
| 20260903182552 | 95 | 315 | 1.7 | 6.1 | 0.00 | 0.00 | 0.00 | 50 | 1016.0 |
| 20260903182050 | 95 | 315 | 2.6 | 7.0 | 0.00 | 0.00 | 0.00 | 49 | 1016.0 |
| 20260903181552 | 96 | 213 | 1.7 | 7.0 | 0.00 | 0.00 | 0.00 | 48 | 1016.0 |
| 20260903181051 | 95 | 170 | 0.9 | 7.0 | 0.00 | 0.00 | 0.00 | 55 | 1016.0 |
| 20260903180652 | 93 | 340 | 1.7 | 3.5 | 0.00 | 0.00 | 0.00 | 51 | 1016.0 |
| 20260903180053 | 95 | 148 | 0.9 | 4.3 | 0.00 | 0.00 | 0.00 | 50 | 1016.1 |
| 20260903175549 | 96 | 109 | 0.9 | 8.7 | 0.00 | 0.00 | 0.00 | 49 | 1016.2 |
| 20260903175049 | 96 | 142 | 4.3 | 8.7 | 0.00 | 0.00 | 0.00 | 48 | 1016.2 |
| 20260903174548 | 97 | 279 | 3.5 | 7.8 | 0.00 | 0.00 | 0.00 | 47 | 1016.3 |
| 20260903174050 | 96 | 300 | 2.6 | 8.7 | 0.00 | 0.00 | 0.00 | 50 | 1016.2 |
| 20260903173546 | 94 | 168 | 2.6 | 8.7 | 0.00 | 0.00 | 0.00 | 50 | 1016.5 |
| 20260903173050 | 95 | 306 | 2.6 | 7.8 | 0.00 | 0.00 | 0.00 | 50 | 1016.5 |
| 20260903172545 | 95 | 200 | 1.7 | 7.8 | 0.00 | 0.00 | 0.00 | 50 | 1016.5 |
| 20260903172045 | 95 | 137 | 1.7 | 9.6 | 0.00 | 0.00 | 0.00 | 51 | 1016.6 |
| 20260903171544 | 95 | 209 | 3.5 | 9.6 | 0.00 | 0.00 | 0.00 | 50 | 1016.6 |
| 20260903171044 | 95 | 31 | 1.7 | 8.7 | 0.00 | 0.00 | 0.00 | 48 | 1016.8 |
| 20260903170643 | 97 | 203 | 4.3 | 8.7 | 0.00 | 0.00 | 0.00 | 47 | 1016.8 |
| 20260903170059 | 97 | 145 | 1.7 | 8.7 | 0.00 | 0.00 | 0.00 | 49 | 1016.7 |
| 20260903165551 | 96 | 332 | 2.6 | 10.4 | 0.00 | 0.00 | 0.00 | 49 | 1016.9 |
| 20260903165049 | 96 | 246 | 0.9 | 10.4 | 0.00 | 0.00 | 0.00 | 52 | 1016.9 |
| 20260903164551 | 96 | 223 | 1.7 | 8.7 | 0.00 | 0.00 | 0.00 | 51 | 1016.9 |
| 20260903164048 | 96 | 244 | 2.6 | 7.8 | 0.00 | 0.00 | 0.00 | 51 | 1016.9 |
| 20260903163548 | 95 | 195 | 2.6 | 7.0 | 0.00 | 0.00 | 0.00 | 52 | 1017.0 |
| 20260903163100 | 95 | 207 | 2.6 | 7.8 | 0.00 | 0.00 | 0.00 | 53 | 1017.0 |
| 20260903162545 | 94 | 106 | 2.6 | 7.8 | 0.00 | 0.00 | 0.00 | 55 | 1017.1 |
| 20260903162044 | 94 | 63 | 3.5 | 8.7 | 0.00 | 0.00 | 0.00 | 54 | 1017.1 |
| 20260903161544 | 94 | 205 | 1.7 | 8.7 | 0.00 | 0.00 | 0.00 | 55 | 1017.2 |
| 20260903161041 | 94 | 222 | 3.5 | 8.7 | 0.00 | 0.00 | 0.00 | 55 | 1017.2 |
| 20260903160510 | 94 | 171 | 1.7 | 8.7 | 0.00 | 0.00 | 0.00 | 55 | 1017.2 |
| 20260903160009 | 93 | 189 | 1.7 | 7.8 | 0.00 | 0.00 | 0.00 | 56 | 1017.2 |
| 20260903155506 | 93 | 214 | 2.6 | 12.2 | 0.00 | 0.00 | 0.00 | 56 | 1017.3 |
| 20260903155005 | 93 | 207 | 3.5 | 12.2 | 0.00 | 0.00 | 0.00 | 56 | 1017.3 |
| 20260903154504 | 93 | 311 | 2.6 | 6.1 | 0.00 | 0.00 | 0.00 | 56 | 1017.4 |
| 20260903154004 | 93 | 186 | 1.7 | 7.0 | 0.00 | 0.00 | 0.00 | 56 | 1017.4 |
| 20260903153502 | 92 | 274 | 1.7 | 4.3 | 0.00 | 0.00 | 0.00 | 58 | 1017.4 |
| 20260903153100 | 92 | 269 | 0.9 | 7.0 | 0.00 | 0.00 | 0.00 | 59 | 1017.5 |
| 20260903152558 | 91 | 175 | 1.7 | 9.6 | 0.00 | 0.00 | 0.00 | 61 | 1017.5 |
| 20260903152057 | 91 | 211 | 3.5 | 9.6 | 0.00 | 0.00 | 0.00 | 59 | 1017.5 |
| 20260903151556 | 91 | 184 | 1.7 | 4.3 | 0.00 | 0.00 | 0.00 | 60 | 1017.6 |
| 20260903151055 | 90 | 302 | 1.7 | 4.3 | 0.00 | 0.00 | 0.00 | 61 | 1017.5 |
| 20260903150504 | 89 | 239 | 1.7 | 5.2 | 0.00 | 0.00 | 0.00 | 62 | 1017.5 |
| 20260903150005 | 90 | 213 | 0.9 | 7.8 | 0.00 | 0.00 | 0.00 | 62 | 1017.4 |
| 20260903145501 | 89 | 303 | 1.7 | 7.8 | 0.00 | 0.00 | 0.00 | 65 | 1017.6 |
| 20260903145059 | 89 | 98 | 0.9 | 7.0 | 0.00 | 0.00 | 0.00 | 64 | 1017.6 |
| 20260903144602 | 88 | 220 | 1.7 | 7.0 | 0.00 | 0.00 | 0.00 | 66 | 1017.6 |
| 20260903144059 | 88 | 217 | 1.7 | 7.0 | 0.00 | 0.00 | 0.00 | 66 | 1017.7 |
| 20260903143555 | 88 | 165 | 1.7 | 3.5 | 0.00 | 0.00 | 0.00 | 66 | 1017.7 |
| 20260903143059 | 87 | 196 | 0.9 | 7.8 | 0.00 | 0.00 | 0.00 | 69 | 1017.8 |
| 20260903142553 | 86 | 264 | 2.6 | 7.8 | 0.00 | 0.00 | 0.00 | 69 | 1017.8 |
| 20260903142056 | 86 | 327 | 0.9 | 3.5 | 0.00 | 0.00 | 0.00 | 70 | 1017.7 |
| 20260903141556 | 86 | 182 | 1.7 | 5.2 | 0.00 | 0.00 | 0.00 | 70 | 1017.8 |
| 20260903141049 | 85 | 275 | 1.7 | 5.2 | 0.00 | 0.00 | 0.00 | 72 | 1017.8 |
| 20260903140648 | 85 | 79 | 0.9 | 6.1 | 0.00 | 0.00 | 0.00 | 73 | 1017.7 |
| 20260903140052 | 84 | 255 | 0.9 | 7.0 | 0.00 | 0.00 | 0.00 | 75 | 1017.8 |
| 20260903135549 | 82 | 231 | 1.7 | 7.0 | 0.00 | 0.00 | 0.00 | 78 | 1017.8 |
| 20260903135048 | 80 | 270 | 0.9 | 4.3 | 0.00 | 0.00 | 0.00 | 83 | 1017.9 |
| 20260903134546 | 79 | 188 | 0.9 | 3.5 | 0.00 | 0.00 | 0.00 | 85 | 1017.8 |
| 20260903134049 | 77 | 196 | 0.9 | 4.3 | 0.00 | 0.00 | 0.00 | 87 | 1017.8 |
| 20260903133544 | 76 | 185 | 0.9 | 4.3 | 0.00 | 0.00 | 0.00 | 89 | 1017.9 |
| 20260903133043 | 75 | 171 | 0.9 | 2.6 | 0.00 | 0.00 | 0.00 | 90 | 1017.9 |
| 20260903132542 | 75 | 175 | 0.0 | 2.6 | 0.00 | 0.00 | 0.00 | 92 | 1018.0 |
| 20260903132042 | 74 | 203 | 0.0 | 1.7 | 0.00 | 0.00 | 0.00 | 92 | 1017.9 |
| 20260903131543 | 74 | 203 | 0.0 | 1.7 | 0.00 | 0.00 | 0.00 | 93 | 1017.9 |
| 20260903131042 | 73 | 155 | 0.0 | 0.9 | 0.00 | 0.00 | 0.00 | 93 | 1017.8 |
| 20260903130642 | 73 | 155 | 0.0 | 0.9 | 0.00 | 0.00 | 0.00 | 93 | 1017.8 |
| 20260903130048 | 73 | 155 | 0.0 | 0.0 | 0.00 | 0.00 | 0.00 | 94 | 1017.7 |
| 20260903125546 | 72 | 155 | 0.0 | 0.0 | 0.00 | 0.00 | 0.00 | 94 | 1017.8 |
| 20260903125045 | 72 | 155 | 0.0 | 0.9 | 0.00 | 0.00 | 0.00 | 94 | 1017.8 |
| 20260903124553 | 71 | 155 | 0.0 | 0.9 | 0.00 | 0.00 | 0.00 | 94 | 1017.7 |
| 20260903124044 | 71 | 155 | 0.0 | 0.0 | 0.00 | 0.00 | 0.00 | 94 | 1017.7 |
| 20260903123544 | 71 | 155 | 0.0 | 0.0 | 0.00 | 0.00 | 0.00 | 94 | 1017.7 |
| 20260903123044 | 71 | 155 | 0.0 | 0.0 | 0.00 | 0.00 | 0.00 | 95 | 1017.6 |
| 20260903122545 | 70 | 155 | 0.0 | 0.9 | 0.00 | 0.00 | 0.00 | 95 | 1017.7 |
| 20260903122042 | 70 | 155 | 0.0 | 0.9 | 0.00 | 0.00 | 0.00 | 95 | 1017.7 |
| 20260903121544 | 70 | 155 | 0.0 | 0.0 | 0.00 | 0.00 | 0.00 | 95 | 1017.7 |
| 20260903121040 | 70 | 155 | 0.0 | 0.0 | 0.00 | 0.00 | 0.00 | 95 | 1017.7 |
| 20260903120503 | 70 | 155 | 0.0 | 0.0 | 0.00 | 0.00 | 0.00 | 95 | 1017.6 |
| 20260903120003 | 69 | 155 | 0.0 | 0.9 | 0.00 | 0.00 | 0.00 | 95 | 1017.5 |
| 20260903115500 | 69 | 154 | 0.0 | 0.9 | 0.00 | 0.00 | 0.00 | 95 | 1017.6 |
| 20260903115100 | 69 | 161 | 0.0 | 0.9 | 0.00 | 0.00 | 0.00 | 95 | 1017.6 |
| 20260903114618 | 69 | 161 | 0.0 | 0.9 | 0.00 | 0.00 | 0.00 | 95 | 1017.6 |
| 20260903114058 | 69 | 161 | 0.0 | 0.0 | 0.00 | 0.00 | 0.00 | 95 | 1017.6 |
| 20260903113558 | 69 | 161 | 0.0 | 0.9 | 0.00 | 0.00 | 0.00 | 95 | 1017.5 |
| 20260903113104 | 70 | 161 | 0.0 | 0.9 | 0.00 | 0.00 | 0.00 | 94 | 1017.4 |
| 20260903112558 | 70 | 161 | 0.0 | 0.9 | 0.00 | 0.00 | 0.00 | 94 | 1017.4 |
| 20260903112056 | 70 | 161 | 0.0 | 0.9 | 0.00 | 0.00 | 0.00 | 94 | 1017.3 |
| 20260903111616 | 70 | 161 | 0.0 | 0.0 | 0.00 | 0.00 | 0.00 | 94 | 1017.4 |
| 20260903111058 | 70 | 161 | 0.0 | 0.9 | 0.00 | 0.00 | 0.00 | 94 | 1017.4 |
| 20260903110657 | 70 | 161 | 0.0 | 0.9 | 0.00 | 0.00 | 0.00 | 94 | 1017.4 |
| 20260903110055 | 70 | 161 | 0.0 | 0.9 | 0.00 | 0.00 | 0.00 | 94 | 1017.3 |
| 20260903105557 | 70 | 161 | 0.0 | 0.0 | 0.00 | 0.00 | 0.00 | 94 | 1017.3 |
| 20260903105055 | 70 | 161 | 0.0 | 0.9 | 0.00 | 0.00 | 0.00 | 94 | 1017.3 |
| 20260903104559 | 70 | 161 | 0.0 | 0.9 | 0.00 | 0.00 | 0.00 | 94 | 1017.2 |
| 20260903104051 | 70 | 161 | 0.0 | 0.9 | 0.00 | 0.00 | 0.00 | 94 | 1017.1 |
| 20260903103551 | 70 | 161 | 0.0 | 0.9 | 0.00 | 0.00 | 0.00 | 94 | 1017.1 |
| 20260903103058 | 70 | 161 | 0.0 | 0.9 | 0.00 | 0.00 | 0.00 | 94 | 1017.0 |
| 20260903102550 | 70 | 161 | 0.0 | 0.9 | 0.00 | 0.00 | 0.00 | 94 | 1017.1 |
| 20260903102050 | 70 | 161 | 0.0 | 0.9 | 0.00 | 0.00 | 0.00 | 94 | 1017.1 |
| 20260903101553 | 70 | 161 | 0.0 | 0.9 | 0.00 | 0.00 | 0.00 | 94 | 1017.1 |
| 20260903101050 | 70 | 161 | 0.0 | 0.9 | 0.00 | 0.00 | 0.00 | 94 | 1017.1 |
| 20260903100652 | 70 | 161 | 0.0 | 0.0 | 0.00 | 0.00 | 0.00 | 94 | 1017.0 |
| 20260903100048 | 70 | 161 | 0.0 | 0.0 | 0.00 | 0.00 | 0.00 | 94 | 1017.0 |
| 20260903095547 | 70 | 161 | 0.0 | 0.0 | 0.00 | 0.00 | 0.00 | 94 | 1017.0 |
| 20260903095047 | 70 | 161 | 0.0 | 0.0 | 0.00 | 0.00 | 0.00 | 94 | 1017.0 |
| 20260903094556 | 70 | 161 | 0.0 | 0.0 | 0.00 | 0.00 | 0.00 | 94 | 1017.0 |